SPMAX ENZV-ENBR

Flight info

Callsign SPMAX
Flight time 0h 22m
Altitude 16000
Route ALUVA
Aircraft C750/M-SBDE3FGHRWXY/S

Departure

Time 2026-04-25 18:26
Airport Stavanger Airport, Sola (ENZV)

Arrival

Time 2026-04-25 18:49
Airport Bergen Airport, Flesland (ENBR)
Time Latitude Longitude Altitude Speed Heading
2026-04-25 17:57 58.88601 5.62702 23 ft 0 kts 254°
2026-04-25 18:16 58.88601 5.62699 21 ft 1 kts 254°
2026-04-25 18:17 58.88600 5.62695 21 ft 0 kts 254°
2026-04-25 18:17 58.88599 5.62685 21 ft 0 kts 254°
2026-04-25 18:19 58.88599 5.62683 21 ft 0 kts 266°
2026-04-25 18:19 58.88605 5.62681 21 ft 2 kts 354°
2026-04-25 18:19 58.88624 5.62761 23 ft 15 kts 66°
2026-04-25 18:20 58.88637 5.62818 24 ft 0 kts 65°
2026-04-25 18:20 58.88628 5.62835 24 ft 6 kts 159°
2026-04-25 18:20 58.88579 5.62871 22 ft 10 kts 152°
2026-04-25 18:20 58.88518 5.62973 21 ft 12 kts 124°
2026-04-25 18:21 58.88467 5.63054 22 ft 9 kts 143°
2026-04-25 18:21 58.88437 5.63109 23 ft 9 kts 135°
2026-04-25 18:21 58.88423 5.63136 23 ft 9 kts 134°
2026-04-25 18:22 58.88252 5.63290 27 ft 10 kts 165°
2026-04-25 18:22 58.88229 5.63297 27 ft 10 kts 173°
2026-04-25 18:22 58.88110 5.63253 27 ft 12 kts 209°
2026-04-25 18:22 58.88040 5.63215 25 ft 10 kts 155°
2026-04-25 18:23 58.88005 5.63307 26 ft 8 kts 127°
2026-04-25 18:23 58.87969 5.63372 28 ft 6 kts 166°
2026-04-25 18:23 58.87916 5.63345 28 ft 10 kts 204°
2026-04-25 18:23 58.87856 5.63299 28 ft 0 kts 202°
2026-04-25 18:24 58.87822 5.63289 28 ft 12 kts 184°
2026-04-25 18:24 58.87744 5.63358 28 ft 11 kts 109°
2026-04-25 18:24 58.87720 5.63522 29 ft 15 kts 106°
2026-04-25 18:24 58.87692 5.63712 30 ft 13 kts 99°
2026-04-25 18:25 58.87717 5.63781 30 ft 0 kts 359°
2026-04-25 18:25 58.87720 5.63781 30 ft 5 kts 359°
2026-04-25 18:26 58.88063 5.63771 29 ft 100 kts
2026-04-25 18:26 58.88826 5.63826 582 ft 115 kts 356°
2026-04-25 18:26 58.89654 5.63863 1290 ft 127 kts 355°
2026-04-25 18:26 58.90595 5.63733 1683 ft 150 kts 355°
2026-04-25 18:27 58.91743 5.63651 2028 ft 179 kts 357°
2026-04-25 18:27 58.93102 5.63607 2501 ft 209 kts 359°
2026-04-25 18:27 58.94640 5.63570 3214 ft 227 kts 359°
2026-04-25 18:27 58.96223 5.63527 4372 ft 228 kts 359°
2026-04-25 18:28 58.97817 5.63479 5428 ft 235 kts 359°
2026-04-25 18:28 58.99459 5.63430 6578 ft 237 kts 359°
2026-04-25 18:28 59.01120 5.63382 7706 ft 238 kts 358°
2026-04-25 18:29 59.04359 5.62508 10185 ft 237 kts 338°
2026-04-25 18:29 59.05798 5.60740 10773 ft 260 kts 322°
2026-04-25 18:30 59.07527 5.49169 12364 ft 328 kts 278°
2026-04-25 18:30 59.08047 5.44984 13053 ft 314 kts 303°
2026-04-25 18:30 59.09221 5.41458 13969 ft 308 kts 311°
2026-04-25 18:30 59.10647 5.38434 14690 ft 307 kts 321°
2026-04-25 18:31 59.12373 5.35933 15468 ft 306 kts 330°
2026-04-25 18:31 59.14267 5.34139 16103 ft 310 kts 337°
2026-04-25 18:31 59.16341 5.32537 16161 ft 332 kts 338°
2026-04-25 18:31 59.18538 5.30742 16161 ft 352 kts 336°
2026-04-25 18:32 59.20824 5.28765 16165 ft 364 kts 336°
2026-04-25 18:32 59.22375 5.27433 16163 ft 367 kts 336°
2026-04-25 18:32 59.24724 5.25470 16164 ft 368 kts 337°
2026-04-25 18:32 59.27093 5.23499 16166 ft 369 kts 337°
2026-04-25 18:33 59.29461 5.21495 16162 ft 370 kts 336°
2026-04-25 18:33 59.31824 5.19482 16162 ft 371 kts 336°
2026-04-25 18:33 59.34193 5.17476 16160 ft 371 kts 337°
2026-04-25 18:33 59.36566 5.15469 16144 ft 373 kts 336°
2026-04-25 18:34 59.38960 5.13433 16151 ft 375 kts 336°
2026-04-25 18:34 59.41354 5.11395 16151 ft 375 kts 336°
2026-04-25 18:34 59.43742 5.09360 16150 ft 374 kts 336°
2026-04-25 18:34 59.46133 5.07320 16152 ft 375 kts 336°
2026-04-25 18:35 59.48519 5.05387 16146 ft 375 kts 340°
2026-04-25 18:35 59.50967 5.04044 16032 ft 348 kts 345°
2026-04-25 18:35 59.53254 5.03285 15354 ft 319 kts 351°
2026-04-25 18:35 59.55406 5.02975 14299 ft 306 kts 355°
2026-04-25 18:36 59.57551 5.03084 13126 ft 311 kts
2026-04-25 18:36 59.59646 5.03575 13072 ft 302 kts
2026-04-25 18:36 59.61757 5.04442 12752 ft 312 kts
2026-04-25 18:36 59.63833 5.05451 12348 ft 310 kts
2026-04-25 18:37 59.65922 5.06419 11940 ft 308 kts
2026-04-25 18:37 59.68005 5.07390 11532 ft 307 kts
2026-04-25 18:37 59.70082 5.08382 11122 ft 306 kts
2026-04-25 18:37 59.72156 5.09372 10721 ft 305 kts
2026-04-25 18:38 59.74212 5.10347 10320 ft 304 kts
2026-04-25 18:38 59.76338 5.11351 10167 ft 327 kts 10°
2026-04-25 18:38 59.78526 5.12398 10104 ft 306 kts 10°
2026-04-25 18:38 59.80486 5.13357 9756 ft 277 kts 10°
2026-04-25 18:39 59.82268 5.14208 9544 ft 250 kts
2026-04-25 18:39 59.83920 5.14987 8883 ft 242 kts 10°
2026-04-25 18:39 59.85557 5.15761 8055 ft 245 kts 10°
2026-04-25 18:39 59.87211 5.16556 7599 ft 242 kts 11°
2026-04-25 18:40 59.88799 5.17325 7308 ft 227 kts 11°
2026-04-25 18:40 59.90290 5.18042 7016 ft 215 kts 11°
2026-04-25 18:40 59.91713 5.18725 6737 ft 205 kts 11°
2026-04-25 18:40 59.93072 5.19377 6425 ft 198 kts 11°
2026-04-25 18:41 59.94373 5.20005 6186 ft 186 kts 11°
2026-04-25 18:41 59.95602 5.20597 5937 ft 179 kts 11°
2026-04-25 18:41 59.96813 5.21179 5704 ft 179 kts 11°
2026-04-25 18:41 59.98019 5.21759 5474 ft 181 kts 11°
2026-04-25 18:42 59.99263 5.22360 5237 ft 183 kts 11°
2026-04-25 18:42 60.00086 5.22758 5072 ft 184 kts 11°
2026-04-25 18:42 60.01729 5.23555 4746 ft 182 kts 11°
2026-04-25 18:42 60.02961 5.24151 4506 ft 183 kts 11°
2026-04-25 18:43 60.04194 5.24748 4257 ft 182 kts 12°
2026-04-25 18:43 60.05424 5.25344 4018 ft 181 kts 11°
2026-04-25 18:43 60.06639 5.25934 3788 ft 179 kts 12°
2026-04-25 18:43 60.07855 5.26524 3545 ft 180 kts 12°
2026-04-25 18:44 60.09073 5.27115 3304 ft 180 kts 12°
2026-04-25 18:44 60.10296 5.27581 3062 ft 179 kts
2026-04-25 18:44 60.11517 5.27645 2975 ft 171 kts 356°
2026-04-25 18:44 60.12693 5.27335 2988 ft 176 kts 353°
2026-04-25 18:45 60.13910 5.26957 2994 ft 178 kts 352°
2026-04-25 18:45 60.15141 5.26547 2894 ft 182 kts 352°
2026-04-25 18:45 60.16401 5.26127 2640 ft 183 kts 351°
2026-04-25 18:45 60.17647 5.25710 2380 ft 179 kts 351°
2026-04-25 18:46 60.18865 5.25301 2133 ft 176 kts 351°
2026-04-25 18:46 60.20073 5.24897 1887 ft 175 kts 350°
2026-04-25 18:46 60.21281 5.24502 1639 ft 175 kts 350°
2026-04-25 18:46 60.22481 5.24085 1279 ft 180 kts 349°
2026-04-25 18:47 60.23716 5.23669 981 ft 167 kts 350°
2026-04-25 18:47 60.24712 5.23355 783 ft 126 kts 348°
2026-04-25 18:47 60.25492 5.23083 602 ft 107 kts 347°
2026-04-25 18:47 60.26210 5.22853 499 ft 103 kts 347°
2026-04-25 18:48 60.26902 5.22632 390 ft 101 kts 346°
2026-04-25 18:48 60.27601 5.22384 303 ft 106 kts 349°
2026-04-25 18:48 60.28311 5.22167 179 ft 99 kts 347°
2026-04-25 18:48 60.28923 5.21960 160 ft 69 kts 349°
2026-04-25 18:49 60.29257 5.21847 154 ft 37 kts 352°
2026-04-25 18:49 60.29380 5.21866 151 ft 12 kts 69°
2026-04-25 18:49 60.29391 5.21993 154 ft 5 kts 83°
2026-04-25 18:49 60.29393 5.22027 155 ft 0 kts 83°
2026-04-25 18:50 60.29394 5.22032 155 ft 3 kts 83°
2026-04-25 18:50 60.29422 5.22102 156 ft 10 kts 12°
2026-04-25 18:51 60.29499 5.22081 153 ft 12 kts 349°
2026-04-25 18:51 60.29558 5.22060 151 ft 13 kts 350°
2026-04-25 18:51 60.29692 5.22016 147 ft 15 kts 351°
2026-04-25 18:51 60.29731 5.22072 144 ft 7 kts 92°
2026-04-25 18:52 60.29704 5.22132 146 ft 8 kts 159°
2026-04-25 18:52 60.29679 5.22217 146 ft 7 kts 78°
2026-04-25 18:52 60.29686 5.22290 145 ft 0 kts 79°